User: anonymous   Login
Location: Unspecified
(0.0000°N, 0.0000°E)
Time: 21:03:23
(UTC+01:00)
Language:

Hubble Space Telescope - Orbit

View from above orbital plane
View from above orbital plane
View from above satellite
View from above satellite

Ground track
Ground track

The orbit data is extracted from the following two-line orbital elements,

1 20580U 90037B   15064.49188007  .00003069  00000-0  18881-3 0  9994
2 20580 028.4701 117.6879 0003020 196.8722 307.0527 15.06929421164158
Epoch (UTC): 05 March 2015 11:48:18
Eccentricity: 0.0003020
inclination: 28.4701°
perigee height: 543 km
apogee height: 547 km
right ascension of ascending node: 117.6879°
argument of perigee: 196.8722°
revolutions per day: 15.06929421
mean anomaly at epoch: 307.0527°
orbit number at epoch: 16415

The dashed part of the orbit path shows where the satellite is in the earth's shadow,  

DLR